Regional Weather Roundup
Issued by NWS

Home | Current Version | Previous Version | Graphics & Text | Print | Product List | Glossary On
Versions: 1 2 3 4 5 6 7 8 9 10 11 12 13 14 15 16 17 18 19 20 21 22 23 24 25 26 27 28 29 30 31 32 33 34 35 36 37 38 39 40 41 42 43 44 45 46 47 48 49 50
000
ASUS43 KMPX 110101
RWRMN
WEATHER ROUNDUP FOR MINNESOTA
NATIONAL WEATHER SERVICE TWIN CITIES/CHANHASSEN MN
800 PM CDT THU JUL 10 2014


NOTE: "FAIR" INDICATES FEW OR NO CLOUDS BELOW 12,000 FEET WITH NO
SIGNIFICANT WEATHER AND/OR OBSTRUCTIONS TO VISIBILITY. N/A MEANS
CURRENT SKY AND/OR WEATHER CONDITIONS ARE NOT AVAILABLE.

MNZ060>063-068>070-110200-
   Twin Cities Metro

CITY           SKY/WX    TMP DP  RH WIND       PRES   REMARKS
TWIN CITIES    CLOUDY    81  59  47 S13       29.98R
ST PAUL        MOCLDY    78  61  55 S9        29.98S
CRYSTAL        CLOUDY    81  58  45 S9        29.96R
BLAINE         MOCLDY    81  61  50 S12       29.97S
LAKEVILLE      MOCLDY    77  61  57 S7        29.99S
EDEN PRAIRIE   CLOUDY    79  59  50 S13       29.97R
SOUTH ST PAUL  CLOUDY    80  60  50 S6        29.98S
LAKE ELMO      FAIR      77  63  61 S7        30.00S
$$
MNZ001>005-007-008-013>017-022>024-027-028-110200-
   Northwest Minnesota

CITY           SKY/WX    TMP DP  RH WIND       PRES   REMARKS
BEMIDJI        CLOUDY    75  62  64 SE10      29.90F
HALLOCK        PTSUNNY   79  63  57 S10       29.80S
ROSEAU         CLOUDY    75  63  64 S10       29.85F
WARROAD        CLOUDY    75  63  64 SE9       29.86F
THIEF RVR FALL PTSUNNY   75  63  64 SE12      29.84F
CROOKSTON      CLOUDY    75  64  69 SE9       29.82F
FOSSTON        CLOUDY    73  63  68 SE7       29.87F
DETROIT LAKES  HVY RAIN  70  66  88 S6        29.92R
PARK RAPIDS    CLOUDY    76  63  64 SE12      29.90F
$$
MNZ006-009>011-018-025>026-110200-
   North Central Minnesota

CITY           SKY/WX    TMP DP  RH WIND       PRES   REMARKS
BAUDETTE       CLOUDY    73  58  59 S7        29.89F
FLAG ISLAND    CLOUDY    72  64  78 S9        29.85F
INTL FALLS     MOCLDY    72  57  59 VRB3      29.92S
LONGVILLE      MOCLDY    73  64  73 SE3       29.93F
GRAND RAPIDS   CLOUDY    73  61  64 SE6       29.95F
CRANE LAKE     PTCLDY    66  63  88 CALM      29.96S
ORR            MOCLDY    70  57  64 CALM      29.93F
COOK           MOCLDY    75  55  50 S3        29.96S
$$
MNZ012-019>021-037-110200-
   Northeast Minnesota

CITY           SKY/WX    TMP DP  RH WIND       PRES   REMARKS
DULUTH         MOCLDY    66  54  65 SE12      29.99F
ELY            PTCLDY    73  52  46 S3        29.98S
HIBBING        CLOUDY    75  61  61 S3        29.96F
EVELETH        MOCLDY    72  55  56 S3        29.98S
DULUTH HARBOR  MOCLDY    57  52  82 NE8       30.00F
TWO HARBORS    PTCLDY    66  55  68 E3        29.98S
SILVER BAY     PTCLDY    63  55  77 NE6       29.99S
GRAND MARAIS     N/A     55  46  71 CALM      30.01F
G MARAIS ARPRT CLEAR     63  48  59 CALM      30.06S
$$
MNZ029>031-032-039>041-046>048-054>057-064-110200-
   West Central Minnesota

CITY           SKY/WX    TMP DP  RH WIND       PRES   REMARKS
FERGUS FALLS   CLOUDY    73  64  73 SE7       29.86S
WHEATON        RAIN      73  64  73 SE8       29.87S
MORRIS         CLOUDY    75  66  73 S9        29.87F
ALEXANDRIA     CLOUDY    77  63  61 SE13      29.91F
ELBOW LAKE     PTSUNNY   75  66  73 S7        29.88S
WADENA         CLOUDY    75  63  64 SE8       29.90S
GLENWOOD       CLOUDY    77  64  65 S10       29.91F
APPLETON       LGT RAIN  75  66  73 S12       29.87F
BENSON         LGT RAIN  77  66  69 S12G17    29.89F
ORTONVILLE     LGT RAIN  73  66  78 S10       29.87S
MADISON        CLOUDY    79  66  65 SE12      29.88S
WILLMAR        FAIR      81  61  50 S5        29.94S
$$
MNZ033>034-036-042>043-049>051-058-059-110200-
   Central Minnesota

CITY           SKY/WX    TMP DP  RH WIND       PRES   REMARKS
ST CLOUD       CLOUDY    78  62  57 SE7       29.94S
SAUK CENTRE    FAIR      77  64  63 SE8       29.93S
PAYNESVILLE    CLOUDY    76  61  59 E8        29.94S HAZE
AITKIN         MOCLDY    79  64  61 SE6       29.93F
PINE RIVER     CLOUDY    75  64  69 SE8       29.95F
BRAINERD       CLOUDY    81  63  54 SE8       29.94S
STAPLES        CLOUDY    75  63  64 SE7       29.91F
LONG PRAIRIE   MOCLDY    75  63  64 SE9       29.93S HAZE
LITTLE FALLS   CLOUDY    77  61  57 SE7       29.94S
LITCHFIELD     CLOUDY    81  63  54 S5        29.95S
BUFFALO        CLOUDY    80  59  48 SE6       29.97S
MAPLE LAKE     CLOUDY    79  63  56 S3        29.97S
$$
MNZ037-044-045-052-053-110200-
   East Central Minnesota

CITY           SKY/WX    TMP DP  RH WIND       PRES   REMARKS
PRINCETON      CLOUDY    79  63  57 S8        29.96S
MORA           CLOUDY    75  63  64 CALM      29.98S
CAMBRIDGE      CLOUDY    81  63  54 SE3       29.95S
RUSH CITY      CLOUDY    76  64  67 SE5       29.96F
MOOSE LAKE     MOCLDY    75  61  60 S3        29.96S
HINCKLEY       FAIR      75  66  73 SE5       29.97S
CLOQUET        CLOUDY    70  55  60 E5        29.99S
MCGREGOR       CLOUDY    75  63  64 SE8       29.96S
$$
MNZ071>073-080-081-089-090-097-098-110200-
   Southwest Minnesota

CITY           SKY/WX    TMP DP  RH WIND       PRES   REMARKS
MONTEVIDEO     LGT RAIN  75  66  73 S10       29.91S
GRANITE FALLS  CLOUDY    77  64  62 SE13      29.92F
CANBY          CLOUDY    75  66  72 SE8       29.90R
MARSHALL       CLOUDY    75  64  69 S14       29.89F
REDWOOD FALLS  CLOUDY    80  63  55 S16G23    29.93S
OLIVIA         CLOUDY    79  63  57 S8        29.93S
PIPESTONE      CLOUDY    75  64  69 S17G23    29.93S
WINDOM         CLOUDY    73  64  73 SE10      29.97F
WORTHINGTON    CLOUDY    73  66  78 S14G20    29.96F
JACKSON        CLOUDY    77  61  57 S13G21    29.98F
TRACY          CLOUDY    76  66  71 S10       29.93S
SLAYTON        CLOUDY    76  63  65 SE13G18   29.95S
$$
MNZ065>067-074>077-082>085-091>093-110200-
   South Central Minnesota

CITY           SKY/WX    TMP DP  RH WIND       PRES   REMARKS
MANKATO        CLOUDY    79  57  47 S13G18    29.99R
NEW ULM        CLOUDY    79  63  57 S12       29.96S
ST JAMES       CLOUDY    79  61  53 SE15      29.98F
FAIRMONT       CLOUDY    77  57  50 S15       29.99F
GLENCOE        MOCLDY    81  60  48 S7        29.96S
FARIBAULT      MOCLDY    81  54  39 SE10      30.00S
OWATONNA       MOCLDY    79  57  47 SE10      30.01F
WASECA         MOCLDY    77  54  44 S9        30.01F
ALBERT LEA     MOCLDY    79  57  47 S10       30.03S
$$
MNZ078>079-086>088-094>096-110200-
   Southeast Minnesota

CITY           SKY/WX    TMP DP  RH WIND       PRES   REMARKS
ROCHESTER      MOCLDY    74  60  61 S10       30.06S
RED WING       MOCLDY    79  59  50 S6        30.00S
STANTON        MOCLDY    79  59  50 S9        29.98F
DODGE CENTER   MOCLDY    75  61  60 S10       30.04S
WINONA         MOCLDY    77  61  57 S5        30.04S
AUSTIN         CLOUDY    75  57  53 S9        30.05S
PRESTON        MOCLDY    74  62  66 S7        30.07S
$$
ABBREVIATIONS USED IN REMARKS
   TC - TEMPERATURES IN CELSIUS
  WCI - WIND CHILL INDEX
   HX - HEAT INDEX
  VSB - VISIBILITY
$$



USA.gov is the U.S. government's official web portal to all federal, state and local government web resources and services.